When you browse on this site, cookies collect data to enhance your experience and personalize the content and advertising you see.
Visit our Privacy Policy to learn more. By continuing to use the site, you agree to this use of cookies and data.
  • In France
  • List of Countries
  • For 7 days
  • Water Temperature
  • Satellite Maps
  • Weather Map
  • Weather Widgets
  • user-avatar
    Login

    Hourly Weather Ibigs

    Today, 18 November, Sunday

    Time Temperature Precipitation Wind Pressure Humidity
    00:00 +21°C° 0.3 mm 1 mps 648 mmHg 74%
    01:00 +21°C° 0.3 mm 1 mps 648 mmHg 75%
    02:00 +20°C° 0.2 mm 1 mps 648 mmHg 75%
    03:00 +20°C° 0.2 mm 1 mps 648 mmHg 76%
    04:00 +18°C° 0.2 mm 0 mps 647 mmHg 77%
    05:00 +18°C° 0.2 mm 0 mps 648 mmHg 76%
    06:00 +19°C° 0.2 mm 0 mps 648 mmHg 75%
    07:00 +19°C° 0.2 mm 0 mps 649 mmHg 74%
    08:00 +23°C° 0.1 mm 1 mps 649 mmHg 70%
    09:00 +24°C° 0.1 mm 1 mps 650 mmHg 66%
    10:00 +25°C° 0.1 mm 1 mps 650 mmHg 63%
    11:00 +26°C° 0.2 mm 1 mps 650 mmHg 61%
    12:00 +27°C° 0.2 mm 1 mps 649 mmHg 59%
    13:00 +27°C° 0.2 mm 1 mps 649 mmHg 57%
    14:00 +27°C° 0.2 mm 1 mps 648 mmHg 58%
    15:00 +27°C° 0.2 mm 1 mps 648 mmHg 59%
    16:00 +27°C° 0.2 mm 1 mps 647 mmHg 60%
    17:00 +25°C° 0.1 mm 1 mps 647 mmHg 65%
    18:00 +24°C° 0.1 mm 1 mps 647 mmHg 69%
    19:00 +22°C° 0.1 mm 1 mps 647 mmHg 73%
    20:00 +22°C° 0.2 mm 1 mps 648 mmHg 73%
    21:00 +22°C° 0.2 mm 1 mps 648 mmHg 74%
    22:00 +22°C° 0.2 mm 1 mps 649 mmHg 74%
    23:00 +21°C° 0.7 mm 1 mps 649 mmHg 75%

    Tomorrow, 19 November, Monday

    Time Temperature Precipitation Wind Pressure Humidity
    00:00 +21°C° 0.7 mm 1 mps 648 mmHg 76%
    01:00 +21°C° 0.7 mm 1 mps 648 mmHg 77%
    02:00 +20°C° 0.7 mm 1 mps 648 mmHg 78%
    03:00 +20°C° 0.7 mm 1 mps 648 mmHg 79%
    04:00 +20°C° 0.7 mm 1 mps 648 mmHg 80%
    05:00 +20°C° 0.3 mm 1 mps 648 mmHg 79%
    06:00 +21°C° 0.3 mm 1 mps 648 mmHg 78%
    07:00 +21°C° 0.3 mm 1 mps 649 mmHg 77%
    08:00 +22°C° 0.1 mm 1 mps 649 mmHg 72%
    09:00 +24°C° 0.1 mm 1 mps 650 mmHg 67%
    10:00 +25°C° 0.1 mm 1 mps 650 mmHg 61%
    11:00 +26°C° 0.2 mm 1 mps 650 mmHg 60%
    12:00 +26°C° 0.2 mm 1 mps 649 mmHg 59%
    13:00 +27°C° 0.2 mm 2 mps 649 mmHg 57%
    14:00 +27°C° 0.2 mm 1 mps 648 mmHg 59%
    15:00 +27°C° 0.2 mm 1 mps 648 mmHg 60%
    16:00 +26°C° 0.2 mm 1 mps 647 mmHg 62%
    17:00 +25°C° 0.1 mm 1 mps 647 mmHg 66%
    18:00 +23°C° 0.1 mm 1 mps 647 mmHg 71%
    19:00 +22°C° 0.1 mm 1 mps 648 mmHg 75%
    20:00 +22°C° 0.1 mm 1 mps 648 mmHg 75%
    21:00 +21°C° 0.1 mm 1 mps 649 mmHg 76%
    22:00 +21°C° 0.1 mm 1 mps 649 mmHg 76%
    23:00 +21°C° 0.1 mm 1 mps 649 mmHg 76%

    Day after tomorrow, 20 November, Tuesday

    Time Temperature Precipitation Wind Pressure Humidity
    00:00 +21°C° 0.1 mm 1 mps 649 mmHg 77%
    01:00 +18°C° 0.1 mm 0 mps 648 mmHg 78%
    02:00 +18°C° 0.1 mm 0 mps 648 mmHg 79%
    03:00 +18°C° 0.1 mm 0 mps 648 mmHg 80%
    04:00 +17°C° 0.1 mm 0 mps 647 mmHg 81%
    05:00 +18°C° 0 mm 0 mps 648 mmHg 80%
    06:00 +18°C° 0 mm 0 mps 648 mmHg 78%
    07:00 +19°C° 0 mm 0 mps 649 mmHg 77%
    08:00 +23°C° 0 mm 1 mps 650 mmHg 70%
    09:00 +25°C° 0 mm 1 mps 650 mmHg 62%
    10:00 +27°C° 0 mm 1 mps 651 mmHg 55%
    11:00 +27°C° 0 mm 1 mps 650 mmHg 53%
    12:00 +28°C° 0 mm 1 mps 650 mmHg 51%
    13:00 +29°C° 0 mm 2 mps 649 mmHg 49%
    14:00 +28°C° 0 mm 1 mps 649 mmHg 51%
    15:00 +28°C° 0 mm 1 mps 648 mmHg 53%
    16:00 +27°C° 0 mm 1 mps 647 mmHg 56%
    17:00 +26°C° 0.1 mm 1 mps 648 mmHg 61%
    18:00 +24°C° 0.1 mm 1 mps 648 mmHg 67%
    19:00 +22°C° 0.1 mm 1 mps 648 mmHg 72%
    20:00 +22°C° 0.3 mm 1 mps 649 mmHg 73%
    21:00 +21°C° 0.3 mm 1 mps 649 mmHg 75%
    22:00 +21°C° 0.3 mm 1 mps 650 mmHg 76%
    23:00 +20°C° 0.1 mm 1 mps 649 mmHg 77%

    21 November, Wednesday

    Time Temperature Precipitation Wind Pressure Humidity
    00:00 +20°C° 0.1 mm 1 mps 649 mmHg 78%
    01:00 +20°C° 0.1 mm 1 mps 648 mmHg 79%
    02:00 +20°C° 0 mm 1 mps 648 mmHg 80%
    03:00 +19°C° 0 mm 1 mps 648 mmHg 80%
    04:00 +19°C° 0 mm 1 mps 648 mmHg 81%
    05:00 +18°C° 0 mm 0 mps 649 mmHg 79%
    06:00 +18°C° 0 mm 0 mps 649 mmHg 77%
    07:00 +19°C° 0 mm 0 mps 650 mmHg 75%
    08:00 +21°C° 0 mm 0 mps 650 mmHg 68%
    09:00 +24°C° 0 mm 1 mps 651 mmHg 61%
    10:00 +26°C° 0 mm 1 mps 652 mmHg 54%
    11:00 +27°C° 0 mm 1 mps 651 mmHg 52%
    12:00 +28°C° 0 mm 1 mps 650 mmHg 49%
    13:00 +29°C° 0 mm 1 mps 649 mmHg 47%
    14:00 +28°C° 0 mm 1 mps 649 mmHg 49%
    15:00 +28°C° 0 mm 1 mps 648 mmHg 51%
    16:00 +27°C° 0 mm 1 mps 648 mmHg 53%
    17:00 +25°C° 0 mm 1 mps 648 mmHg 59%
    18:00 +24°C° 0 mm 1 mps 648 mmHg 65%
    19:00 +22°C° 0 mm 1 mps 648 mmHg 71%
    20:00 +22°C° 0.1 mm 1 mps 648 mmHg 71%
    21:00 +21°C° 0.1 mm 1 mps 649 mmHg 72%
    22:00 +21°C° 0.1 mm 1 mps 649 mmHg 73%
    23:00 +21°C° 0.4 mm 1 mps 649 mmHg 74%

    22 November, Thursday

    Time Temperature Precipitation Wind Pressure Humidity
    00:00 +21°C° 0.4 mm 1 mps 649 mmHg 75%
    01:00 +20°C° 0.4 mm 1 mps 648 mmHg 76%
    02:00 +20°C° 0.5 mm 1 mps 648 mmHg 77%
    03:00 +20°C° 0.5 mm 1 mps 648 mmHg 77%
    04:00 +20°C° 0.5 mm 1 mps 648 mmHg 78%
    05:00 +20°C° 0.2 mm 1 mps 648 mmHg 77%
    06:00 +18°C° 0.2 mm 0 mps 649 mmHg 76%
    07:00 +19°C° 0.2 mm 0 mps 649 mmHg 76%
    08:00 +22°C° 0.5 mm 1 mps 650 mmHg 73%
    09:00 +23°C° 0.5 mm 1 mps 650 mmHg 70%
    10:00 +23°C° 0.5 mm 1 mps 651 mmHg 67%
    11:00 +24°C° 0.3 mm 1 mps 650 mmHg 65%
    12:00 +25°C° 0.3 mm 1 mps 650 mmHg 63%
    13:00 +25°C° 0.3 mm 1 mps 649 mmHg 61%
    14:00 +25°C° 0.2 mm 1 mps 649 mmHg 61%
    15:00 +25°C° 0.2 mm 1 mps 648 mmHg 62%
    16:00 +25°C° 0.2 mm 1 mps 648 mmHg 62%
    17:00 +24°C° 0.1 mm 1 mps 648 mmHg 67%
    18:00 +22°C° 0.1 mm 1 mps 648 mmHg 71%
    19:00 +21°C° 0.1 mm 1 mps 648 mmHg 76%
    20:00 +21°C° 0.1 mm 1 mps 648 mmHg 77%
    21:00 +20°C° 0.1 mm 1 mps 649 mmHg 78%
    22:00 +20°C° 0.1 mm 1 mps 649 mmHg 79%
    23:00 +20°C° 0.2 mm 1 mps 649 mmHg 80%

    23 November, Friday

    Time Temperature Precipitation Wind Pressure Humidity
    00:00 +20°C° 0.2 mm 1 mps 648 mmHg 81%
    01:00 +19°C° 0.2 mm 1 mps 648 mmHg 82%
    02:00 +19°C° 0.1 mm 1 mps 648 mmHg 83%
    03:00 +19°C° 0.1 mm 1 mps 647 mmHg 84%
    04:00 +17°C° 0.1 mm 0 mps 647 mmHg 85%
    05:00 +17°C° 0.1 mm 0 mps 648 mmHg 83%
    06:00 +17°C° 0.1 mm 0 mps 648 mmHg 82%
    07:00 +18°C° 0.1 mm 0 mps 649 mmHg 81%
    08:00 +22°C° 0 mm 1 mps 649 mmHg 72%
    09:00 +24°C° 0 mm 1 mps 650 mmHg 64%
    10:00 +26°C° 0 mm 1 mps 650 mmHg 55%
    11:00 +27°C° 0 mm 1 mps 650 mmHg 52%
    12:00 +28°C° 0 mm 2 mps 649 mmHg 48%
    13:00 +29°C° 0 mm 2 mps 648 mmHg 45%
    14:00 +28°C° 0 mm 2 mps 648 mmHg 46%
    15:00 +28°C° 0 mm 2 mps 647 mmHg 47%
    16:00 +28°C° 0 mm 2 mps 647 mmHg 48%
    17:00 +26°C° 0.1 mm 2 mps 647 mmHg 57%
    18:00 +23°C° 0.1 mm 1 mps 647 mmHg 65%
    19:00 +21°C° 0.1 mm 1 mps 647 mmHg 74%
    20:00 +20°C° 0.1 mm 1 mps 648 mmHg 74%
    21:00 +20°C° 0.1 mm 1 mps 648 mmHg 73%
    22:00 +20°C° 0.1 mm 1 mps 649 mmHg 73%
    23:00 +19°C° 0 mm 1 mps 648 mmHg 72%
    Show more